Ncc Najd — HZAK — position and weather

sailwx.info

Track history (hours):
 
Tides and Currents Weather Stations Pressure Air Temp Water Temp Dewpoint Dewpoint Depression Visibility Wind Speed Wind Dir Waves Ship Positions

Ncc Najd

Last reported at 2014-Jul-30 03:23 UTC. Time now 2014-Jul-31 05:32 UTC.
Position N 01°10' E 103°47'.

Length 183 m; draft 8.2 m.

Type: Ship. MMSI: 403579000.

Date/timePositionNaut miles runAvg speedWind from/ knotsBaromVisibWave heightAir tempDewpointWater temp
2014-Jul-30 03:23N 01°10' E 103°47'1114.0
2014-Jul-30 02:33N 01°15' E 103°57'6 5.7
2014-Jul-30 01:33N 01°16' E 104°03'  
2014-Jul-23 09:17N 29°28' E 122°47'1011.8
2014-Jul-23 08:27N 29°35' E 122°39'1011.4
2014-Jul-23 07:33N 29°40' E 122°29'1312.9
2014-Jul-23 06:33N 29°47' E 122°16'1212.2
2014-Jul-23 05:34N 29°56' E 122°07'1211.8
2014-Jul-23 04:33N 29°57' E 121°53'  
2014-Jul-20 23:32N 29°59' E 121°45'4 4.4
2014-Jul-20 22:33N 29°58' E 121°50'4 3.8
2014-Jul-20 21:30N 29°58' E 121°55'0 0.1
2014-Jul-20 20:30N 29°58' E 121°55'0 0.1
2014-Jul-20 19:30N 29°58' E 121°55'0 0.1
2014-Jul-20 18:33N 29°58' E 121°55'0 0.1
2014-Jul-20 17:27N 29°58' E 121°55'0 0.0
2014-Jul-20 16:30N 29°58' E 121°55'0 0.0
2014-Jul-20 15:30N 29°58' E 121°55'0 0.0
2014-Jul-20 14:30N 29°58' E 121°55'0 0.0
2014-Jul-20 13:30N 29°58' E 121°55'0 0.0
2014-Jul-20 12:30N 29°58' E 121°55'0 0.1
2014-Jul-20 11:30N 29°58' E 121°55'0 0.1
2014-Jul-20 10:30N 29°58' E 121°55'0 0.1
2014-Jul-20 09:30N 29°58' E 121°55'1 1.1
2014-Jul-20 08:33N 29°58' E 121°54'1110.8
2014-Jul-20 07:34N 29°56' E 122°06'1212.0
2014-Jul-20 06:33N 29°47' E 122°16'9 9.3
2014-Jul-20 05:33N 29°44' E 122°26'1413.4
2014-Jul-20 04:33N 29°43' E 122°41'  
Track history (hours):
 
Tides and Currents Weather Stations Pressure Air Temp Water Temp Dewpoint Dewpoint Depression Visibility Wind Speed Wind Dir Waves Ship Positions

Ncc Najd

Last reported at 2014-Jul-30 03:23 UTC. Time now 2014-Jul-31 05:32 UTC.
Position N 01°10' E 103°47'.

Length 183 m; draft 8.2 m.

Type: Ship. MMSI: 403579000.

Date/timePositionNaut miles runAvg speedWind from/ knotsBaromVisibWave heightAir tempDewpointWater temp
2014-Jul-30 03:23N 01°10' E 103°47'1114.0
2014-Jul-30 02:33N 01°15' E 103°57'6 5.7
2014-Jul-30 01:33N 01°16' E 104°03'  
2014-Jul-23 09:17N 29°28' E 122°47'1011.8
2014-Jul-23 08:27N 29°35' E 122°39'1011.4
2014-Jul-23 07:33N 29°40' E 122°29'1312.9
2014-Jul-23 06:33N 29°47' E 122°16'1212.2
2014-Jul-23 05:34N 29°56' E 122°07'1211.8
2014-Jul-23 04:33N 29°57' E 121°53'  
2014-Jul-20 23:32N 29°59' E 121°45'4 4.4
2014-Jul-20 22:33N 29°58' E 121°50'4 3.8
2014-Jul-20 21:30N 29°58' E 121°55'0 0.1
2014-Jul-20 20:30N 29°58' E 121°55'0 0.1
2014-Jul-20 19:30N 29°58' E 121°55'0 0.1
2014-Jul-20 18:33N 29°58' E 121°55'0 0.1
2014-Jul-20 17:27N 29°58' E 121°55'0 0.0
2014-Jul-20 16:30N 29°58' E 121°55'0 0.0
2014-Jul-20 15:30N 29°58' E 121°55'0 0.0
2014-Jul-20 14:30N 29°58' E 121°55'0 0.0
2014-Jul-20 13:30N 29°58' E 121°55'0 0.0
2014-Jul-20 12:30N 29°58' E 121°55'0 0.1
2014-Jul-20 11:30N 29°58' E 121°55'0 0.1
2014-Jul-20 10:30N 29°58' E 121°55'0 0.1
2014-Jul-20 09:30N 29°58' E 121°55'1 1.1
2014-Jul-20 08:33N 29°58' E 121°54'1110.8
2014-Jul-20 07:34N 29°56' E 122°06'1212.0
2014-Jul-20 06:33N 29°47' E 122°16'9 9.3
2014-Jul-20 05:33N 29°44' E 122°26'1413.4
2014-Jul-20 04:33N 29°43' E 122°41'  

Dump ship's entire track history